Location: Bush Observatory
(40.2653°N, 94.3194°W)
Time: 05:18:05
(UTC-05:00)

Daily predictions for brighter satellites

Satellite Brightness Start Highest point End
(mag) Time Altitude Azimuth Time Altitude Azimuth Time Altitude Azimuth
Cosmos 1741 Rocket 3.9 00:08:10 83° E 00:08:10 83° E 00:13:29 10° NNE
H-2A R/B 3.3 00:09:27 27° WSW 00:10:03 27° W 00:14:20 10° NW
Meteor 2-5 Rocket 3.8 00:11:10 65° ESE 00:11:23 65° E 00:17:09 10° NNE
Terra 3.5 00:18:26 22° W 00:18:45 23° W 00:22:29 10° NW
Cosmos 1092 Rocket 4.0 00:17:40 61° SSW 00:18:48 78° W 00:25:07 10° N
Cosmos 1842 Rocket 4.2 00:15:06 10° NNW 00:18:45 50° WNW 00:18:45 50° WNW
Cosmos 1656 Rocket 3.6 00:16:06 10° NNW 00:21:49 79° ENE 00:22:04 77° E
Cosmos 1570 Rocket 4.2 00:18:48 10° NNW 00:24:00 65° W 00:24:00 65° W
Cosmos 1850 Rocket 4.2 00:26:27 63° W 00:26:45 64° WNW 00:31:58 10° NNE
NOSS 3-2 (C) 4.0 00:35:49 44° E 00:35:49 44° E 00:41:17 10° NE
CZ-2C R/B 4.3 00:31:01 10° NE 00:34:45 23° E 00:34:45 23° E
S3M 4.3 00:30:58 10° N 00:37:02 51° ENE 00:37:39 49° E
CZ-4C R/B 2.8 00:40:01 44° E 00:40:01 44° E 00:44:32 10° NE
Cosmos 1655 Rocket 3.8 00:38:30 74° SSE 00:39:00 81° E 00:45:18 10° N
Cosmos 1470 4.3 00:35:29 10° NNW 00:37:54 34° NW 00:37:54 34° NW
Cosmos 2369 Rocket 4.4 00:37:13 10° WNW 00:39:26 12° W 00:40:04 12° WSW
Atlas Centaur 2 4.1 00:36:56 10° WSW 00:40:54 27° SW 00:40:54 27° SW
Helios 1A Rocket 4.5 00:41:56 10° NNE 00:44:16 30° NE 00:44:16 30° NE
Cosmos 468 Rocket 4.4 00:46:20 10° N 00:51:25 56° ENE 00:51:25 56° ENE
Cosmos 1428 Rocket 4.4 00:51:42 66° ESE 00:51:55 66° E 00:58:03 10° NNE
Cosmos 1766 Rocket 4.4 00:54:16 48° NNE 00:54:16 48° NNE 00:57:36 10° NNE
Meteor 1-16 Rocket 4.2 00:51:01 10° NNW 00:56:33 77° W 00:56:33 77° W
Cosmos 1814 Rocket 4.4 00:51:36 10° N 00:56:45 55° ENE 00:56:45 55° ENE
H-2A R/B 3.9 01:03:53 10° N 01:06:20 32° NNW 01:06:20 32° NNW
Cosmos 2278 3.9 01:02:43 10° NNW 01:08:19 59° ENE 01:08:40 58° E
Cosmos 1486 Rocket 4.3 01:09:38 58° ENE 01:09:38 58° ENE 01:14:03 10° NNE
Cosmos 2221 3.8 01:05:38 10° NNW 01:08:31 35° NW 01:08:31 35° NW
Cosmos 1818 4.0 01:05:36 10° NNW 01:11:00 55° NE 01:11:26 53° ENE
Cosmos 2026 Rocket 4.2 01:10:43 52° WSW 01:11:20 54° W 01:17:16 10° N
Cosmos 2228 Rocket 3.9 01:10:07 10° N 01:13:23 49° N 01:13:23 49° N
NOSS 3-2 (A) 3.5 01:19:14 63° WSW 01:20:08 73° NW 01:26:48 10° NNE
ISS 0.2 01:19:00 10° NNW 01:20:17 12° N 01:21:34 10° NNE
CZ-4B R/B 4.0 01:24:39 19° NW 01:24:39 19° NW 01:26:02 10° NNW
Cosmos 2082 Rocket 2.7 01:28:50 48° E 01:28:50 48° E 01:33:46 10° NE
Cosmos 1697 Rocket 4.1 01:26:41 10° N 01:31:47 32° ENE 01:33:56 25° E
Cosmos 1763 Rocket 3.7 01:29:16 10° NNW 01:34:31 65° ENE 01:34:31 65° ENE
ALOS 2 4.5 01:40:13 22° WNW 01:40:13 22° WNW 01:42:26 10° NW
Cosmos 1833 Rocket 3.2 01:40:04 46° E 01:40:04 46° E 01:45:05 10° NE
Cosmos 1867 3.5 01:45:00 82° NNE 01:45:00 82° NNE 01:50:15 10° NNE
Cosmos 883 Rocket 4.3 01:39:39 10° N 01:46:03 88° E 01:46:39 75° SSE
Nadezhda 2 Rocket 4.5 01:48:08 65° SE 01:48:49 71° E 01:55:07 10° NNE
USA 215 3.9 01:44:54 10° ENE 01:50:36 37° ESE 01:50:36 37° ESE
Cosmos 1354 Rocket 4.0 01:54:49 82° NNE 01:54:49 82° NNE 01:59:56 10° NNE
Cosmos 1674 4.3 01:57:00 33° NNE 01:57:00 33° NNE 01:59:14 10° NNE
CZ-2C R/B 3.1 01:55:22 77° ESE 01:55:37 79° ENE 02:01:19 10° N
USA 32 4.4 01:54:46 10° N 01:59:56 54° E 02:00:13 54° E
Cosmos 1503 Rocket 4.0 02:01:51 81° NW 02:01:51 81° NW 02:07:06 10° NNE
Lacrosse 5 3.4 01:58:46 10° NNW 02:03:23 34° NE 02:08:00 10° E
Cosmos 1656 3.6 02:02:24 10° NNW 02:08:09 81° ENE 02:08:39 73° SE
Cosmos 2315 Rocket 3.8 02:06:06 10° N 02:12:27 82° W 02:13:14 69° SSW
Cosmos 841 Rocket 3.7 02:07:52 10° NNW 02:12:30 59° WNW 02:12:30 59° WNW
Cosmos 724 4.1 02:14:16 74° WSW 02:14:45 81° WNW 02:20:39 10° NNE
CZ-2C R/B 3.2 02:10:31 10° N 02:15:49 46° WNW 02:16:17 45° W
Meteor 2-2 Rocket 4.4 02:11:54 10° NNW 02:17:31 59° W 02:17:35 59° W
Cosmos 1151 Rocket 3.9 02:14:22 10° NNW 02:17:28 44° NW 02:17:28 44° NW
Cosmos 2058 3.5 02:23:26 53° NE 02:23:26 53° NE 02:26:55 10° NNE
Cosmos 2322 Rocket 4.3 02:19:32 10° N 02:23:54 22° NE 02:28:14 10° ESE
Cosmos 2151 3.5 02:25:30 55° NNW 02:25:30 55° NNW 02:29:00 10° N
Cosmos 1745 Rocket 4.5 02:23:23 42° SE 02:25:05 53° E 02:31:14 10° NNE
CENTAUR R/B 2.4 02:24:34 61° SSE 02:25:23 68° ESE 02:32:07 10° NE
CZ-4C R/B 3.8 02:25:10 20° W 02:27:43 28° NW 02:32:55 10° NNE
CZ-3 Stage 3 4.4 02:00:40 10° WSW 02:32:33 44° S 02:37:52 10° ESE
Lacrosse 5 rocket 4.1 02:30:29 10° NNW 02:33:44 20° NNE 02:37:04 10° ENE
Meteor 1-11 4.4 02:36:43 56° SSE 02:37:48 70° E 02:43:35 10° NNE
Sich 1 3.4 02:38:33 59° E 02:38:33 59° E 02:42:50 10° NNE
Cosmos 405 4.5 02:36:44 10° NNW 02:38:53 33° NNW 02:38:53 33° NNW
Cosmos 2344 4.1 02:37:44 32° WSW 02:41:24 57° NW 02:50:11 10° NNE
IRAS Rocket 4.2 02:38:29 10° NNE 02:43:59 73° ESE 02:44:56 59° SSE
H-2A R/B 3.3 02:45:24 34° SE 02:45:24 34° SE 02:56:11 10° E
PSLV R/B 3.6 02:42:07 10° N 02:46:43 82° WNW 02:46:43 82° WNW
ASTEX 1 3.8 02:45:27 10° N 02:50:14 48° W 02:50:22 48° W
AQUA 4.4 02:48:10 10° NNE 02:52:46 46° E 02:53:37 41° SE
Cosmos 1980 Rocket 2.1 02:49:17 10° NNW 02:54:57 89° WSW 02:56:36 48° SSE
ISS -0.1 02:55:48 10° NNW 02:57:49 15° NNE 02:59:49 10° NE
CBERS-1 4.4 02:54:09 10° NNE 02:59:10 55° E 03:00:26 43° SSE
Cosmos 1300 3.4 02:56:21 10° NNW 02:59:19 48° NW 02:59:19 48° NW
ERS-2 2.4 02:56:43 10° NNE 03:00:00 68° NNE 03:00:00 68° NNE
CZ-2D R/B 4.4 02:59:31 10° NE 03:02:50 17° E 03:06:09 10° SE
ADEOS 4.3 03:00:32 10° NNE 03:05:32 45° E 03:07:23 32° SSE
ARIANE 5 R/B 4.2 03:03:42 10° NE 03:07:57 26° E 03:10:38 17° SE
NPP 3.6 03:03:09 10° NNE 03:08:35 83° ESE 03:10:03 50° S
Cosmos 2082 Rocket 3.7 03:10:40 20° W 03:12:40 25° NW 03:17:17 10° N
Cosmos 1697 Rocket 3.3 03:10:36 10° NW 03:15:37 36° WSW 03:15:37 36° WSW
Cosmos 332 Rocket 3.7 03:14:11 10° NNW 03:18:54 59° WSW 03:19:18 57° SW
ATLAS 2A CENTAUR R/B 4.5 03:16:09 19° SSE 03:19:47 24° SE 03:38:12 10° E
Cosmos 2242 Rocket 3.6 03:16:53 10° NNW 03:21:13 57° W 03:21:25 57° WSW
Meteor 1-4 Rocket 3.1 03:18:54 10° N 03:22:37 59° ENE 03:23:27 46° SE
Cosmos 540 Rocket 4.0 03:18:14 10° NW 03:23:01 39° WSW 03:23:04 39° WSW
SL-08 R/B 3.2 03:21:53 51° S 03:23:04 75° WSW 03:27:59 10° NNW
OAO 3 Rocket 3.8 03:23:53 38° SSE 03:23:53 38° SSE 03:27:40 10° ESE
BREEZE-M DEB (TANK) 4.1 03:20:11 10° NW 03:23:37 71° NNE 03:36:13 10° ESE
Cosmos 1833 Rocket 4.1 03:21:45 21° W 03:23:50 26° NW 03:28:31 10° N
Cosmos 1455 2.7 03:23:53 10° N 03:27:38 56° E 03:28:44 39° SE
Meteor 2-10 4.0 03:22:53 10° N 03:28:08 89° E 03:30:42 32° S
Cosmos 2181 Rocket 4.3 03:23:28 10° N 03:29:34 63° E 03:34:46 15° SSE
USA 215 3.5 03:27:37 10° NE 03:34:03 63° NW 03:37:56 25° WSW
ATLAS 5 CENTAUR R/B 3.0 03:32:15 25° SSE 03:34:07 33° ESE 03:38:42 10° NE
Cosmos 1633 Rocket 3.9 03:34:04 33° W 03:34:28 33° WNW 03:38:31 10° NNW
Cosmos 1726 3.5 03:31:55 10° NNW 03:34:21 27° WNW 03:34:21 27° WNW
Cosmos 2360 4.2 03:31:18 10° NNW 03:36:54 58° WSW 03:39:20 33° S
IRS-1C 4.1 03:36:41 10° N 03:42:01 74° WNW 03:44:16 36° SSW
Cosmos 1869 3.3 03:40:27 10° N 03:44:26 79° E 03:46:05 34° SSE
Lacrosse 5 2.1 03:41:38 10° NW 03:46:27 45° SW 03:48:15 31° S
Cosmos 1703 Rocket 4.5 03:45:51 10° N 03:50:04 46° E 03:54:13 10° SSE
BREEZE-M TANK 3.3 03:45:21 10° W 03:50:25 41° NNW 03:52:53 10° ENE
Cosmos 1470 Rocket 4.1 03:51:40 36° WSW 03:52:46 44° WNW 03:57:02 10° N
Cosmos 1626 2.2 03:53:42 47° SW 03:54:30 62° W 03:58:14 10° N
Cosmos 1703 4.3 03:54:39 28° W 03:55:08 29° WNW 03:58:39 10° NNW
SL-16 R/B 2.1 03:49:37 10° NNW 03:55:18 77° WSW 04:00:57 10° SSE
Cosmos 1933 Rocket 4.2 03:56:23 33° WSW 03:57:29 40° WNW 04:01:39 10° N
SL-16 R/B 2.7 03:53:25 10° SSE 03:59:38 75° ENE 04:05:55 10° N
Resurs 1-4 Rocket 2.6 03:54:26 10° NNE 03:59:42 58° E 04:03:50 16° S
Cosmos 968 Rocket 4.4 03:59:07 25° WSW 04:01:10 35° WNW 04:05:52 10° N
Cosmos 2292 Rocket 2.6 04:00:53 54° SW 04:01:26 71° W 04:04:49 10° N
Cosmos 2074 Rocket 4.4 03:56:40 12° S 04:02:20 60° E 04:08:28 10° NNE
USA 161 2.9 04:05:59 21° NW 04:05:59 21° NW 04:07:04 10° NNW
Cosmos 2184 Rocket 4.5 04:00:08 11° S 04:06:10 62° E 04:12:26 10° NNE
Cosmos 2322 Rocket 2.3 04:02:49 10° NNW 04:08:18 55° WSW 04:13:25 12° S
EO 1 Del DPAF 3.2 04:06:21 22° S 04:08:47 76° WSW 04:12:43 10° NNW
Cosmos 1271 Rocket 3.4 04:05:42 10° NNW 04:09:05 32° W 04:09:36 30° WSW
Cosmos 1933 3.4 04:05:27 10° N 04:09:29 78° E 04:12:54 14° SSE
Cosmos 371 Rocket 4.2 04:06:40 10° NW 04:10:45 27° W 04:11:43 26° WSW
Cosmos 1346 3.0 04:11:57 41° SSW 04:12:53 77° W 04:15:58 10° N
Lacrosse 5 rocket 1.4 04:09:03 10° NW 04:13:29 82° SW 04:18:03 10° SE
FALCON 9 R/B 2.1 04:15:17 18° SE 04:15:17 18° SE 04:16:18 10° ESE
MOS 1-B 4.5 04:09:30 10° NNE 04:15:19 77° ESE 04:20:18 14° S
Spot 4 Rocket 4.4 04:11:20 10° N 04:16:15 48° WNW 04:19:11 23° SW
CENTAUR R/B 4.0 04:11:44 11° W 04:16:41 28° NW 04:22:34 10° NNE
Cosmos 923 Rocket 4.1 04:16:38 10° NNW 04:21:45 53° WSW 04:26:48 10° S
Okean 1-7 3.4 04:17:23 10° N 04:21:47 64° E 04:26:05 10° SSE
H-2A ROCKET BODY 3.1 04:25:48 18° SSW 04:25:48 18° SSW 04:27:37 10° SSE
Okean O Rocket 2.6 04:21:13 10° NNE 04:25:28 44° E 04:29:40 10° S
Cosmos 304 Rocket 3.7 04:22:34 10° NNW 04:27:24 71° WSW 04:32:11 10° S
Cosmos 1680 Rocket 3.6 04:26:24 10° NNW 04:31:31 57° WSW 04:36:35 10° S
ISS -2.6 04:31:35 10° NW 04:34:48 57° NE 04:38:01 10° ESE
USA 229 DEB 4.2 04:29:07 12° SSW 04:35:25 59° ESE 04:42:15 10° NE
USA 229 4.2 04:29:12 12° SSW 04:35:31 58° ESE 04:42:22 10° NE
Meteor 1-26 Rocket 4.2 04:31:41 10° N 04:37:17 88° E 04:42:48 10° S
IRS-1C Rocket 4.3 04:32:32 10° NNE 04:37:50 73° ESE 04:43:06 10° S
Cosmos 1980 Rocket 4.1 04:36:43 10° W 04:38:03 11° W 04:38:18 11° W
Cosmos 2360 Rocket 2.2 04:34:04 10° NNW 04:39:44 86° WSW 04:45:22 10° SSE
SL-08 ROCKET BODY 4.4 04:33:43 10° S 04:39:44 86° W 04:45:54 10° N
CZ-2D R/B 2.3 04:38:06 10° N 04:43:15 58° WNW 04:47:58 13° SSW
Thor Agena Rocket 4.0 04:38:41 10° SSE 04:43:55 68° ENE 04:49:11 10° N
In-Cosmos 22 Rocket 4.3 04:38:45 10° S 04:44:01 76° E 04:49:25 10° NNE
CZ-4B R/B 3.7 04:40:45 10° NNE 04:46:09 61° ESE 04:51:37 10° S
Cosmos 2221 Rocket 4.1 04:41:57 10° NNW 04:46:12 42° W 04:50:27 10° SSW
ARIANE 5 R/B 3.3 04:42:29 10° N 04:47:07 36° WNW 04:50:59 14° SW
IRS-1D 4.2 04:42:13 10° N 04:47:13 41° WNW 04:51:33 13° SW
Cosmos 389 Rocket 3.7 04:46:41 10° N 04:50:16 46° ENE 04:53:50 10° SSE
Cosmos 2219 3.3 04:45:45 10° SSW 04:51:27 82° ESE 04:57:14 10° NNE
GPS 2-05 Rocket1 3.6 04:49:30 17° SW 04:51:40 35° S 04:54:51 10° ESE
Cosmos 2322 3.7 04:46:55 10° NNW 04:52:37 69° WSW 04:58:17 10° SSE
CZ-2C R/B 3.6 04:48:49 10° S 04:53:16 78° WSW 04:57:50 10° NNW
UNK 4.4 04:50:16 10° SSW 04:54:27 35° W 04:58:38 10° NNW
SL-24 DEB 4.2 04:52:10 10° N 04:56:50 76° W 05:01:26 10° SSW
BREEZE-M DEB (TANK) 4.1 04:50:29 10° WNW 04:57:12 47° N 05:00:09 10° E
Cosmos 1869 Rocket 4.3 04:54:31 13° SW 04:58:02 35° WNW 05:02:05 10° N
Cosmos 1898 Rocket 3.5 04:56:36 10° SSW 05:01:47 78° WNW 05:06:59 10° NNE
Meteor 2-10 Rocket 4.1 05:01:12 10° N 05:06:12 62° E 05:11:19 10° SSE
OAO 3 Rocket 3.6 05:02:00 10° WSW 05:06:25 41° S 05:10:51 10° ESE
CZ-4B DEB 4.3 05:01:37 10° NNE 05:07:08 82° ESE 05:12:39 10° SSW
Cosmos 2333 Rocket 4.3 05:06:17 10° N 05:11:24 33° ENE 05:16:31 10° ESE
Cosmos 1937 Rocket 3.6 05:06:06 10° SSW 05:11:25 89° WNW 05:16:46 10° NNE
PAYLOAD B 4.3 05:07:18 10° N 05:12:48 77° WNW 05:18:19 10° SSW
Cosmos 2150 Rocket 4.3 05:08:44 10° SSW 05:13:55 58° WNW 05:19:14 10° NNE
Cosmos 2341 Rocket 4.1 05:09:02 10° S 05:15:20 86° E 05:21:43 10° N
ATLAS 5 CENTAUR R/B 3.0 05:14:17 10° WSW 05:18:45 33° NW 05:23:32 10° NNE
UNKNOWN OBJECT B 4.2 05:16:35 10° NNW 05:19:38 23° WNW 05:22:42 10° WSW
Iridium 4 Rocket 4.2 05:16:02 10° N 05:20:14 47° E 05:24:15 10° SSE
COSMOS 2428 2.7 05:16:22 10° NNW 05:22:03 80° WSW 05:27:43 10° SSE
ADEOS II 3.6 05:17:26 10° NNE 05:22:20 38° E 05:27:13 10° SSE
